KDAY

Dayton International Airport

Airport
ICAO code
KDAY
Summary
ICAO Region
NAM
ICAO Territory
Location

Dayton, Ohio,

Elevation
1009 ft
Coordinates
39° 54' 8" N , 84° 13' 9" W
KCC
Airport LOS
Parallel Runway Operation
Airport WX
Cumulonimbus
Metar
Observation
KDAY 302156Z 35009KT 10SM BKN014 OVC031 M02/M04 A3025 RMK AO2 SLP253 T10171044
Station
Dayton, Cox Dayton International Airport
Date/Time
2023-01-30 22:56:00
Wind direction
350°
Wind speed
09 kts
Lowest cloud amount
broken clouds
Temperature
-1.7°C
Dew point
-4.4°C
Humidity
81%
Weather condition
n/a

Description

International airport serving Dayton, Ohio. A public airport located 14 km north of the central business district of Dayton, a city in Montgomery County, Ohio, United States. Also referred to as simply Dayton International Airport.

Climatology

Humid continental climate (Köppen climate classification Dfa) - characterized by four seasons: cold, windy, snowy winters, mild springs, hot, humid summers, and crisp and relatively short autumns. Precipitation reaches its lowest in January and February and peaks in summer and latter half of spring.

Airport map

Aerial View

Airport accidents

SKYbrary Partners:

Safety knowledge contributed by: